Location: Feydey
(46.3431°N, 7.0106°E)
Time: 11:30:00
(UTC+00:00)

Cosmos 1328 - Pass Details

Date: 19 October 2021
Orbit: 529 x 551 km, 82.5° (Epoch: 26 November)

Event Time Altitude Azimuth Distance (km) Brightness Sun altitude
Rises 19:31:58 0° 329° (NNW) 2,730 8.0 -30.4°
Reaches altitude 10° 19:35:38 10° 294° (WNW) 1,832 7.4 -31.0°
Maximum altitude 19:36:48 11° 277° (W) 1,761 7.2 -31.2°
Drops below altitude 10° 19:37:58 10° 260° (W) 1,829 7.1 -31.4°
Sets 19:41:38 0° 225° (SW) 2,717 7.7 -32.0°
